STARLINK-32777, 62525

Orbit data source: Space-Track

STARLINK-32777, 62525 is a payload satellite owned by SpaceX/Seattle (US) in LEO that was launched on Wed, 08 Jan 2025 UTC via an FALCON 9 launch vehicle from the Air Force Eastern Test Range (AFETR). Payloads include a variety of satellites, spacecraft, and rockets equipped with specific instruments for various scientific and technological missions. These include communications satellites like Starlink; space stations such as the ISS; scientific satellites like the Hubble; Earth observation satellites from companies like Planet Labs, Umbra, and HawkEye 360; GPS; miniature CubeSats for education and research; and military/defense satellites.

Loading next visibility...
STARLINK-32777 details
Identifier
62525, 2025-004Q
Orbit
LEO
Last TLE update14 hours ago
Origin
Flag of USSpaceX/Seattle (US)
ManufacturerSpaceX/Seattle
MissionOperational spacecraft
Bus & MotorSTARLINK V2M, Unknown motor
Mass730 kg wet, ~700 kg dry
Launch date (UTC)
2025-01-08 (1 month ago)
Launch vehicle
FALCON 9
Launch site
Air Force Eastern Test Range (AFETR)
Object type
Payload
Rocket body
Debris
Shape & HBRUnknown
Radar Cross SectionLarge (>1 m²)

Expand to show TLE details & history

TLE from 14 hours ago
0 STARLINK-32777
1 62525U 25004Q   25035.58335648  .00107240  00000-0  18109-2 0  9993
2 62525  42.9991 313.3568 0001493 253.6551 103.6420 15.50546994  5547
Epoch: 2025-02-04T14:00Z
Definitive object data (Epoch: 2025-02-04T14:00:01.999Z)
Latitude-1.90167°
Longitude-33.66725°
Altitude415.407 km
Speed7.663 km/s
True Right ascension20h 45m 18s
True Declination-1° 53' 23"
Sunlit
Object was in daylight at TLE epoch
Visualization TLE readout
Latitude24.09577°
Longitude-6.58544°
Altitude415.262 km
Speed7.666 km/s
Apparent Right ascension20h 37m 54s
Apparent Declination-8° 02' 12"
Sunlit
Object is in daylight
Visualization observer readout
Local Sidereal Time06:06:45
Azimuth303.057° NW
Elevation-43.621°
Doppler factor1
Orbital elements
Apogee altitude418.107 km
Perigee altitude416.078 km
Semi-major axis6,795.23 km
Eccentricity0.0001493
Inclination42.9991°
RAAN313.3568°
Arg. of periapsis253.6551°
True anomaly103.65863°
Mean anomaly103.642°
Eccentric anomaly103.65031°
Mean motion3.87469 °/min
BSTAR0.0018109
Orbital period92.91 mins
Loading maneuver chart data...
Loading historical data...
Loading historical data...
Loading historical data...
Loading historical data...
Loading historical data...
Loading historical data...
Loading historical data...

STARLINK-32777 Visibility forecast

Observer location: undefined°, undefined

Span
Click to sort rows by Start time (UTC) header in descending order
Start Az.
Max El. time (UTC)
Max El. Az.
Max El.
End time (UTC)
End Az.
4 mins2025-02-05 22:45:57.884Z264.231° W2025-02-05 22:46:57.884Z289.263° WNW42.337°2025-02-05 22:49:57.884Z69.454° E
5 mins2025-02-06 00:22:57.884Z294.698° NW2025-02-06 00:24:57.884Z4.455° NNE36.385°2025-02-06 00:27:57.884Z77.002° E
4 mins2025-02-06 02:00:57.884Z286.797° WNW2025-02-06 02:02:57.884Z116.257° SE41.634°2025-02-06 02:04:57.884Z110.968° ESE
|